Time,TemperatureF,DewpointF,PressureIn,WindDirection,WindDirectionDegrees,WindSpeedMPH,WindSpeedGustMPH,Humidity,HourlyPrecipIn,Conditions,Clouds,dailyrainin,SoftwareType,DateUTC
2013-05-02 00:00:00,66.2,36.9,29.99,North,0,0.0,0.0,34,0.00,,,0.00,WUHU216HW,2013-05-02 07:00:00,
2013-05-02 00:05:00,66.1,37.4,29.99,North,0,0.0,0.0,35,0.00,,,0.00,WUHU216HW,2013-05-02 07:05:00,
2013-05-02 00:10:00,65.9,36.5,29.99,North,0,0.0,0.0,34,0.00,,,0.00,WUHU216HW,2013-05-02 07:10:00,
2013-05-02 00:15:00,65.5,36.3,30.00,North,0,0.0,0.0,34,0.00,,,0.00,WUHU216HW,2013-05-02 07:15:00,
2013-05-02 00:20:00,65.3,37.5,30.00,North,0,0.0,0.0,36,0.00,,,0.00,WUHU216HW,2013-05-02 07:20:00,
2013-05-02 00:25:00,65.2,37.4,30.00,North,0,0.0,0.0,36,0.00,,,0.00,WUHU216HW,2013-05-02 07:25:00,
2013-05-02 00:30:00,65.2,37.4,30.00,North,0,0.0,0.0,36,0.00,,,0.00,WUHU216HW,2013-05-02 07:30:00,
2013-05-02 00:35:00,65.0,37.2,30.01,North,0,0.0,0.0,36,0.00,,,0.00,WUHU216HW,2013-05-02 07:35:00,
2013-05-02 00:40:00,64.8,37.8,30.01,North,0,0.0,0.0,37,0.00,,,0.00,WUHU216HW,2013-05-02 07:40:00,
2013-05-02 00:45:00,64.6,37.6,30.01,North,0,0.0,0.0,37,0.00,,,0.00,WUHU216HW,2013-05-02 07:45:00,
2013-05-02 00:50:00,64.4,37.4,30.01,North,0,0.0,0.0,37,0.00,,,0.00,WUHU216HW,2013-05-02 07:50:00,
2013-05-02 00:55:00,64.4,37.4,30.01,North,0,0.0,0.0,37,0.00,,,0.00,WUHU216HW,2013-05-02 07:55:00,
2013-05-02 01:00:00,64.3,38.0,30.01,North,0,0.0,0.0,38,0.00,,,0.00,WUHU216HW,2013-05-02 08:00:00,
2013-05-02 01:05:00,64.3,38.0,30.01,North,0,0.0,0.0,38,0.00,,,0.00,WUHU216HW,2013-05-02 08:05:00,
2013-05-02 01:11:00,64.1,37.8,30.01,North,0,0.0,0.0,38,0.00,,,0.00,WUHU216HW,2013-05-02 08:11:00,
2013-05-02 01:16:00,64.1,37.8,30.01,North,0,0.0,0.0,38,0.00,,,0.00,WUHU216HW,2013-05-02 08:16:00,
2013-05-02 01:21:00,64.1,37.8,30.02,North,0,0.0,0.0,38,0.00,,,0.00,WUHU216HW,2013-05-02 08:21:00,
2013-05-02 01:26:00,63.9,37.7,30.02,North,0,0.0,0.0,38,0.00,,,0.00,WUHU216HW,2013-05-02 08:26:00,
2013-05-02 01:31:00,63.9,37.0,30.02,North,0,0.0,0.0,37,0.00,,,0.00,WUHU216HW,2013-05-02 08:31:00,
2013-05-02 01:36:00,63.9,37.0,30.02,North,0,0.0,0.0,37,0.00,,,0.00,WUHU216HW,2013-05-02 08:36:00,
2013-05-02 01:41:00,63.9,36.3,30.02,North,0,0.0,0.0,36,0.00,,,0.00,WUHU216HW,2013-05-02 08:41:00,
2013-05-02 01:46:00,63.9,36.3,30.02,North,0,0.0,0.0,36,0.00,,,0.00,WUHU216HW,2013-05-02 08:46:00,
2013-05-02 01:51:00,63.7,36.1,30.02,North,0,0.0,0.0,36,0.00,,,0.00,WUHU216HW,2013-05-02 08:51:00,
2013-05-02 01:56:00,63.5,34.5,30.02,North,0,0.0,0.0,34,0.00,,,0.00,WUHU216HW,2013-05-02 08:56:00,
2013-05-02 02:01:00,63.5,34.5,30.02,North,0,0.0,0.0,34,0.00,,,0.00,WUHU216HW,2013-05-02 09:01:00,
2013-05-02 02:06:00,63.4,34.3,30.02,North,0,0.0,0.0,34,0.00,,,0.00,WUHU216HW,2013-05-02 09:06:00,
2013-05-02 02:11:00,63.2,34.1,30.02,North,0,0.0,0.0,34,0.00,,,0.00,WUHU216HW,2013-05-02 09:11:00,
2013-05-02 02:17:00,63.0,34.0,30.02,North,0,0.0,0.0,34,0.00,,,0.00,WUHU216HW,2013-05-02 09:17:00,
2013-05-02 02:22:00,63.0,34.0,30.02,North,0,0.0,0.0,34,0.00,,,0.00,WUHU216HW,2013-05-02 09:22:00,
2013-05-02 02:27:00,62.8,33.9,30.02,North,0,0.0,0.0,34,0.00,,,0.00,WUHU216HW,2013-05-02 09:27:00,
2013-05-02 02:32:00,62.6,33.7,30.02,North,0,0.0,0.0,34,0.00,,,0.00,WUHU216HW,2013-05-02 09:32:00,
2013-05-02 02:37:00,62.8,33.1,30.02,North,0,0.0,0.0,33,0.00,,,0.00,WUHU216HW,2013-05-02 09:37:00,
2013-05-02 02:42:00,62.8,33.1,30.03,North,0,0.0,0.0,33,0.00,,,0.00,WUHU216HW,2013-05-02 09:42:00,
2013-05-02 02:47:00,62.8,33.1,30.02,North,0,0.0,0.0,33,0.00,,,0.00,WUHU216HW,2013-05-02 09:47:00,
2013-05-02 02:52:00,62.8,32.4,30.03,North,0,0.0,0.0,32,0.00,,,0.00,WUHU216HW,2013-05-02 09:52:00,
2013-05-02 02:57:00,62.8,32.4,30.03,North,0,0.0,0.0,32,0.00,,,0.00,WUHU216HW,2013-05-02 09:57:00,
2013-05-02 03:02:00,62.6,32.2,30.03,North,0,0.0,0.0,32,0.00,,,0.00,WUHU216HW,2013-05-02 10:02:00,
2013-05-02 03:07:00,62.6,32.2,30.03,North,0,0.0,0.0,32,0.00,,,0.00,WUHU216HW,2013-05-02 10:07:00,
2013-05-02 03:12:00,62.6,32.2,30.03,North,0,0.0,0.0,32,0.00,,,0.00,WUHU216HW,2013-05-02 10:12:00,
2013-05-02 03:17:00,62.6,32.2,30.03,North,0,0.0,0.0,32,0.00,,,0.00,WUHU216HW,2013-05-02 10:17:00,
2013-05-02 03:22:00,62.6,32.2,30.03,North,0,0.0,0.0,32,0.00,,,0.00,WUHU216HW,2013-05-02 10:22:00,
2013-05-02 03:28:00,62.6,31.5,30.03,North,0,0.0,0.0,31,0.00,,,0.00,WUHU216HW,2013-05-02 10:28:00,
2013-05-02 03:33:00,62.8,31.7,30.03,North,0,0.0,0.0,31,0.00,,,0.00,WUHU216HW,2013-05-02 10:33:00,
2013-05-02 03:38:00,62.8,31.7,30.03,North,0,0.0,0.0,31,0.00,,,0.00,WUHU216HW,2013-05-02 10:38:00,
2013-05-02 03:43:00,62.6,31.5,30.04,North,0,0.0,0.0,31,0.00,,,0.00,WUHU216HW,2013-05-02 10:43:00,
2013-05-02 03:48:00,62.6,31.5,30.04,North,0,0.0,0.0,31,0.00,,,0.00,WUHU216HW,2013-05-02 10:48:00,
2013-05-02 03:53:00,62.6,31.5,30.04,North,0,0.0,0.0,31,0.00,,,0.00,WUHU216HW,2013-05-02 10:53:00,
2013-05-02 03:58:00,62.5,31.3,30.04,North,0,0.0,0.0,31,0.00,,,0.00,WUHU216HW,2013-05-02 10:58:00,
2013-05-02 04:03:00,62.5,31.3,30.04,North,0,0.0,0.0,31,0.00,,,0.00,WUHU216HW,2013-05-02 11:03:00,
2013-05-02 04:08:00,62.3,31.1,30.04,North,0,0.0,0.0,31,0.00,,,0.00,WUHU216HW,2013-05-02 11:08:00,
2013-05-02 04:13:00,62.3,31.1,30.04,North,0,0.0,0.0,31,0.00,,,0.00,WUHU216HW,2013-05-02 11:13:00,
2013-05-02 04:18:00,62.3,31.1,30.04,North,0,0.0,0.0,31,0.00,,,0.00,WUHU216HW,2013-05-02 11:18:00,
2013-05-02 04:23:00,62.3,31.1,30.04,North,0,0.0,0.0,31,0.00,,,0.00,WUHU216HW,2013-05-02 11:23:00,
2013-05-02 04:28:00,62.3,31.1,30.04,North,0,0.0,0.0,31,0.00,,,0.00,WUHU216HW,2013-05-02 11:28:00,
2013-05-02 04:33:00,62.1,31.1,30.04,North,0,0.0,0.0,31,0.00,,,0.00,WUHU216HW,2013-05-02 11:33:00,
2013-05-02 04:38:00,62.1,31.1,30.04,North,0,0.0,0.0,31,0.00,,,0.00,WUHU216HW,2013-05-02 11:38:00,
2013-05-02 04:44:00,61.9,30.9,30.04,North,0,0.0,0.0,31,0.00,,,0.00,WUHU216HW,2013-05-02 11:44:00,
2013-05-02 04:49:00,61.7,30.7,30.04,North,0,0.0,0.0,31,0.00,,,0.00,WUHU216HW,2013-05-02 11:49:00,
2013-05-02 04:54:00,61.6,30.5,30.05,North,0,0.0,0.0,31,0.00,,,0.00,WUHU216HW,2013-05-02 11:54:00,
2013-05-02 04:59:00,61.6,31.2,30.05,North,0,0.0,0.0,32,0.00,,,0.00,WUHU216HW,2013-05-02 11:59:00,
2013-05-02 05:04:00,61.4,31.1,30.05,North,0,0.0,0.0,32,0.00,,,0.00,WUHU216HW,2013-05-02 12:04:00,
2013-05-02 05:09:00,61.2,31.0,30.05,North,0,0.0,0.0,32,0.00,,,0.00,WUHU216HW,2013-05-02 12:09:00,
2013-05-02 05:14:00,61.0,30.8,30.05,North,0,0.0,0.0,32,0.00,,,0.00,WUHU216HW,2013-05-02 12:14:00,
2013-05-02 05:19:00,60.8,30.6,30.05,North,0,0.0,0.0,32,0.00,,,0.00,WUHU216HW,2013-05-02 12:19:00,
2013-05-02 05:24:00,60.5,31.1,30.05,North,0,0.0,0.0,33,0.00,,,0.00,WUHU216HW,2013-05-02 12:24:00,
2013-05-02 05:29:00,60.1,30.7,30.05,North,0,0.0,0.0,33,0.00,,,0.00,WUHU216HW,2013-05-02 12:29:00,
2013-05-02 05:34:00,59.8,30.4,30.05,North,0,0.0,0.0,33,0.00,,,0.00,WUHU216HW,2013-05-02 12:34:00,
2013-05-02 05:39:00,59.6,31.0,30.05,North,0,0.0,0.0,34,0.00,,,0.00,WUHU216HW,2013-05-02 12:39:00,
2013-05-02 05:44:00,59.2,31.4,30.05,North,0,0.0,0.0,35,0.00,,,0.00,WUHU216HW,2013-05-02 12:44:00,
2013-05-02 05:49:00,58.9,31.8,30.05,North,0,0.0,0.0,36,0.00,,,0.00,WUHU216HW,2013-05-02 12:49:00,
2013-05-02 05:55:00,58.7,31.6,30.05,North,0,0.0,0.0,36,0.00,,,0.00,WUHU216HW,2013-05-02 12:55:00,
2013-05-02 06:00:00,58.3,32.0,30.06,North,0,0.0,0.0,37,0.00,,,0.00,WUHU216HW,2013-05-02 13:00:00,
2013-05-02 06:05:00,58.1,31.9,30.06,North,0,0.0,0.0,37,0.00,,,0.00,WUHU216HW,2013-05-02 13:05:00,
2013-05-02 06:10:00,58.0,32.4,30.06,North,0,0.0,0.0,38,0.00,,,0.00,WUHU216HW,2013-05-02 13:10:00,
2013-05-02 06:15:00,57.6,32.0,30.06,North,0,0.0,0.0,38,0.00,,,0.00,WUHU216HW,2013-05-02 13:15:00,
2013-05-02 06:20:00,57.4,31.9,30.06,North,0,0.0,0.0,38,0.00,,,0.00,WUHU216HW,2013-05-02 13:20:00,
2013-05-02 06:25:00,57.2,31.7,30.07,North,0,0.0,0.0,38,0.00,,,0.00,WUHU216HW,2013-05-02 13:25:00,
2013-05-02 06:30:00,57.2,32.4,30.07,North,0,0.0,0.0,39,0.00,,,0.00,WUHU216HW,2013-05-02 13:30:00,
2013-05-02 06:35:00,57.1,32.2,30.07,North,0,0.0,0.0,39,0.00,,,0.00,WUHU216HW,2013-05-02 13:35:00,
2013-05-02 06:40:00,57.1,32.2,30.07,North,0,0.0,0.0,39,0.00,,,0.00,WUHU216HW,2013-05-02 13:40:00,
2013-05-02 06:45:00,57.1,32.2,30.08,North,0,0.0,0.0,39,0.00,,,0.00,WUHU216HW,2013-05-02 13:45:00,
2013-05-02 06:50:00,57.2,33.1,30.08,North,0,0.0,0.0,40,0.00,,,0.00,WUHU216HW,2013-05-02 13:50:00,
2013-05-02 06:55:00,57.2,33.1,30.08,North,0,0.0,0.0,40,0.00,,,0.00,WUHU216HW,2013-05-02 13:55:00,
2013-05-02 07:01:00,57.6,33.5,30.08,North,0,0.0,0.0,40,0.00,,,0.00,WUHU216HW,2013-05-02 14:01:00,
2013-05-02 07:06:00,58.0,33.8,30.08,North,0,0.0,0.0,40,0.00,,,0.00,WUHU216HW,2013-05-02 14:06:00,
2013-05-02 07:11:00,58.3,34.1,30.08,North,0,0.0,0.0,40,0.00,,,0.00,WUHU216HW,2013-05-02 14:11:00,
2013-05-02 07:16:00,58.9,33.8,30.08,North,0,0.0,0.0,39,0.00,,,0.00,WUHU216HW,2013-05-02 14:16:00,
2013-05-02 07:21:00,59.4,34.4,30.08,North,0,0.0,0.0,39,0.00,,,0.00,WUHU216HW,2013-05-02 14:21:00,
2013-05-02 07:26:00,59.9,34.8,30.08,North,0,0.0,0.0,39,0.00,,,0.00,WUHU216HW,2013-05-02 14:26:00,
2013-05-02 07:31:00,60.3,35.2,30.08,North,0,0.0,0.0,39,0.00,,,0.00,WUHU216HW,2013-05-02 14:31:00,
2013-05-02 07:36:00,60.8,34.9,30.09,North,0,0.0,0.0,38,0.00,,,0.00,WUHU216HW,2013-05-02 14:36:00,
2013-05-02 07:41:00,61.4,35.4,30.08,North,0,0.0,0.0,38,0.00,,,0.00,WUHU216HW,2013-05-02 14:41:00,
2013-05-02 07:46:00,61.7,35.7,30.09,North,0,0.0,0.0,38,0.00,,,0.00,WUHU216HW,2013-05-02 14:46:00,
2013-05-02 07:51:00,62.5,35.6,30.09,North,0,0.0,0.0,37,0.00,,,0.00,WUHU216HW,2013-05-02 14:51:00,
2013-05-02 07:56:00,63.0,36.2,30.09,North,0,0.0,0.0,37,0.00,,,0.00,WUHU216HW,2013-05-02 14:56:00,
2013-05-02 08:01:00,63.5,35.9,30.09,North,0,0.0,0.0,36,0.00,,,0.00,WUHU216HW,2013-05-02 15:01:00,
2013-05-02 08:06:00,64.3,34.4,30.09,North,0,0.0,0.0,33,0.00,,,0.00,WUHU216HW,2013-05-02 15:06:00,
2013-05-02 08:12:00,64.8,34.9,30.09,North,0,0.0,0.0,33,0.00,,,0.00,WUHU216HW,2013-05-02 15:12:00,
2013-05-02 08:17:00,65.2,35.2,30.09,North,0,0.0,0.0,33,0.00,,,0.00,WUHU216HW,2013-05-02 15:17:00,
2013-05-02 08:22:00,65.9,36.5,30.09,North,0,0.0,0.0,34,0.00,,,0.00,WUHU216HW,2013-05-02 15:22:00,
2013-05-02 08:27:00,66.6,37.2,30.09,North,0,0.0,0.0,34,0.00,,,0.00,WUHU216HW,2013-05-02 15:27:00,
2013-05-02 08:32:00,67.3,37.1,30.09,North,0,0.0,0.0,33,0.00,,,0.00,WUHU216HW,2013-05-02 15:32:00,
2013-05-02 08:37:00,67.7,36.6,30.09,North,0,0.0,0.0,32,0.00,,,0.00,WUHU216HW,2013-05-02 15:37:00,
2013-05-02 08:42:00,68.0,36.9,30.09,North,0,0.0,0.0,32,0.00,,,0.00,WUHU216HW,2013-05-02 15:42:00,
2013-05-02 08:47:00,68.4,35.8,30.09,North,0,0.0,0.0,30,0.00,,,0.00,WUHU216HW,2013-05-02 15:47:00,
2013-05-02 08:52:00,68.8,36.1,30.09,North,0,0.0,0.0,30,0.00,,,0.00,WUHU216HW,2013-05-02 15:52:00,
2013-05-02 08:57:00,69.1,36.5,30.09,North,0,0.0,0.0,30,0.00,,,0.00,WUHU216HW,2013-05-02 15:57:00,
2013-05-02 09:02:00,69.7,35.9,30.09,North,0,0.0,0.0,29,0.00,,,0.00,WUHU216HW,2013-05-02 16:02:00,
2013-05-02 09:07:00,70.0,35.2,30.09,North,0,0.0,0.0,28,0.00,,,0.00,WUHU216HW,2013-05-02 16:07:00,
2013-05-02 09:12:00,70.2,33.4,30.09,North,0,0.0,0.0,26,0.00,,,0.00,WUHU216HW,2013-05-02 16:12:00,
2013-05-02 09:17:00,70.6,35.7,30.09,North,0,0.0,0.0,28,0.00,,,0.00,WUHU216HW,2013-05-02 16:17:00,
2013-05-02 09:23:00,70.9,36.0,30.09,North,0,0.0,0.0,28,0.00,,,0.00,WUHU216HW,2013-05-02 16:23:00,
2013-05-02 09:28:00,71.6,35.7,30.09,North,0,0.0,0.0,27,0.00,,,0.00,WUHU216HW,2013-05-02 16:28:00,
2013-05-02 09:33:00,72.2,36.1,30.09,North,0,0.0,0.0,27,0.00,,,0.00,WUHU216HW,2013-05-02 16:33:00,
2013-05-02 09:38:00,72.7,35.5,30.09,North,0,0.0,0.0,26,0.00,,,0.00,WUHU216HW,2013-05-02 16:38:00,
2013-05-02 09:43:00,73.3,36.0,30.09,North,0,0.0,0.0,26,0.00,,,0.00,WUHU216HW,2013-05-02 16:43:00,
2013-05-02 09:48:00,73.6,35.3,30.09,North,0,0.0,0.0,25,0.00,,,0.00,WUHU216HW,2013-05-02 16:48:00,
2013-05-02 09:53:00,73.8,35.4,30.09,North,0,0.0,0.0,25,0.00,,,0.00,WUHU216HW,2013-05-02 16:53:00,
2013-05-02 09:58:00,73.8,35.4,30.09,North,0,0.0,0.0,25,0.00,,,0.00,WUHU216HW,2013-05-02 16:58:00,
2013-05-02 10:03:00,74.5,36.0,30.09,North,0,0.0,0.0,25,0.00,,,0.00,WUHU216HW,2013-05-02 17:03:00,
2013-05-02 10:08:00,74.7,36.2,30.08,North,0,0.0,0.0,25,0.00,,,0.00,WUHU216HW,2013-05-02 17:08:00,
2013-05-02 10:13:00,74.9,36.4,30.09,North,0,0.0,0.0,25,0.00,,,0.00,WUHU216HW,2013-05-02 17:13:00,
2013-05-02 10:18:00,75.2,36.6,30.09,North,0,0.0,0.0,25,0.00,,,0.00,WUHU216HW,2013-05-02 17:18:00,
2013-05-02 10:23:00,75.8,37.1,30.09,North,0,0.0,0.0,25,0.00,,,0.00,WUHU216HW,2013-05-02 17:23:00,
2013-05-02 10:28:00,76.0,36.2,30.09,North,0,0.0,0.0,24,0.00,,,0.00,WUHU216HW,2013-05-02 17:28:00,
2013-05-02 10:34:00,76.3,36.6,30.09,North,0,0.0,0.0,24,0.00,,,0.00,WUHU216HW,2013-05-02 17:34:00,
2013-05-02 10:39:00,76.7,35.7,30.09,North,0,0.0,0.0,23,0.00,,,0.00,WUHU216HW,2013-05-02 17:39:00,
2013-05-02 10:44:00,76.9,35.9,30.09,North,0,0.0,0.0,23,0.00,,,0.00,WUHU216HW,2013-05-02 17:44:00,
2013-05-02 10:49:00,77.2,36.2,30.09,North,0,0.0,0.0,23,0.00,,,0.00,WUHU216HW,2013-05-02 17:49:00,
2013-05-02 10:54:00,77.4,36.4,30.09,North,0,0.0,0.0,23,0.00,,,0.00,WUHU216HW,2013-05-02 17:54:00,
2013-05-02 10:59:00,77.9,36.8,30.09,North,0,0.0,0.0,23,0.00,,,0.00,WUHU216HW,2013-05-02 17:59:00,
2013-05-02 11:04:00,78.1,36.9,30.09,North,0,0.0,0.0,23,0.00,,,0.00,WUHU216HW,2013-05-02 18:04:00,
2013-05-02 11:09:00,78.5,36.2,30.09,North,0,0.0,0.0,22,0.00,,,0.00,WUHU216HW,2013-05-02 18:09:00,
2013-05-02 11:14:00,78.7,37.4,30.09,North,0,0.0,0.0,23,0.00,,,0.00,WUHU216HW,2013-05-02 18:14:00,
2013-05-02 11:19:00,78.8,37.5,30.09,North,0,0.0,0.0,23,0.00,,,0.00,WUHU216HW,2013-05-02 18:19:00,
2013-05-02 11:24:00,79.4,37.0,30.09,North,0,0.0,0.0,22,0.00,,,0.00,WUHU216HW,2013-05-02 18:24:00,
2013-05-02 11:29:00,79.7,37.3,30.09,North,0,0.0,0.0,22,0.00,,,0.00,WUHU216HW,2013-05-02 18:29:00,
2013-05-02 11:35:00,80.1,37.6,30.09,North,0,0.0,0.0,22,0.00,,,0.00,WUHU216HW,2013-05-02 18:35:00,
2013-05-02 11:40:00,80.3,37.8,30.09,North,0,0.0,0.0,22,0.00,,,0.00,WUHU216HW,2013-05-02 18:40:00,
2013-05-02 11:45:00,80.8,38.3,30.08,North,0,0.0,0.0,22,0.00,,,0.00,WUHU216HW,2013-05-02 18:45:00,
2013-05-02 11:50:00,81.0,38.3,30.08,North,0,0.0,0.0,22,0.00,,,0.00,WUHU216HW,2013-05-02 18:50:00,
2013-05-02 11:55:00,81.4,38.7,30.08,North,0,0.0,0.0,22,0.00,,,0.00,WUHU216HW,2013-05-02 18:55:00,
2013-05-02 12:00:00,81.7,39.0,30.08,North,0,0.0,0.0,22,0.00,,,0.00,WUHU216HW,2013-05-02 19:00:00,
2013-05-02 12:05:00,81.9,39.1,30.08,North,0,0.0,0.0,22,0.00,,,0.00,WUHU216HW,2013-05-02 19:05:00,
2013-05-02 12:10:00,82.1,39.2,30.08,North,0,0.0,0.0,22,0.00,,,0.00,WUHU216HW,2013-05-02 19:10:00,
2013-05-02 12:15:00,82.4,38.5,30.08,North,0,0.0,0.0,21,0.00,,,0.00,WUHU216HW,2013-05-02 19:15:00,
2013-05-02 12:20:00,82.6,37.6,30.07,North,0,0.0,0.0,20,0.00,,,0.00,WUHU216HW,2013-05-02 19:20:00,
2013-05-02 12:25:00,83.2,36.4,30.07,North,0,0.0,0.0,19,0.00,,,0.00,WUHU216HW,2013-05-02 19:25:00,
2013-05-02 12:30:00,83.7,36.7,30.07,North,0,0.0,0.0,19,0.00,,,0.00,WUHU216HW,2013-05-02 19:30:00,
2013-05-02 12:35:00,84.2,37.2,30.07,North,0,0.0,0.0,19,0.00,,,0.00,WUHU216HW,2013-05-02 19:35:00,
2013-05-02 12:40:00,84.6,37.4,30.06,North,0,0.0,0.0,19,0.00,,,0.00,WUHU216HW,2013-05-02 19:40:00,
2013-05-02 12:46:00,84.8,35.9,30.06,North,0,0.0,0.0,18,0.00,,,0.00,WUHU216HW,2013-05-02 19:46:00,
2013-05-02 12:51:00,85.3,36.4,30.06,North,0,0.0,0.0,18,0.00,,,0.00,WUHU216HW,2013-05-02 19:51:00,
2013-05-02 12:56:00,85.5,36.5,30.06,North,0,0.0,0.0,18,0.00,,,0.00,WUHU216HW,2013-05-02 19:56:00,
2013-05-02 13:01:00,85.9,36.7,30.06,North,0,0.0,0.0,18,0.00,,,0.00,WUHU216HW,2013-05-02 20:01:00,
2013-05-02 13:06:00,86.6,37.4,30.05,North,0,0.0,0.0,18,0.00,,,0.00,WUHU216HW,2013-05-02 20:06:00,
2013-05-02 13:11:00,87.1,37.9,30.06,North,0,0.0,0.0,18,0.00,,,0.00,WUHU216HW,2013-05-02 20:11:00,
2013-05-02 13:16:00,87.8,35.0,30.05,North,0,0.0,0.0,16,0.00,,,0.00,WUHU216HW,2013-05-02 20:16:00,
2013-05-02 13:21:00,88.4,37.2,30.05,North,0,0.0,0.0,17,0.00,,,0.00,WUHU216HW,2013-05-02 20:21:00,
2013-05-02 13:26:00,88.9,35.8,30.05,North,0,0.0,0.0,16,0.00,,,0.00,WUHU216HW,2013-05-02 20:26:00,
2013-05-02 13:31:00,88.9,37.6,30.05,North,0,0.0,0.0,17,0.00,,,0.00,WUHU216HW,2013-05-02 20:31:00,
2013-05-02 13:36:00,89.3,36.1,30.05,North,0,0.0,0.0,16,0.00,,,0.00,WUHU216HW,2013-05-02 20:36:00,
2013-05-02 13:42:00,89.5,36.3,30.05,North,0,0.0,0.0,16,0.00,,,0.00,WUHU216HW,2013-05-02 20:42:00,
2013-05-02 13:47:00,90.2,36.8,30.05,North,0,0.0,0.0,16,0.00,,,0.00,WUHU216HW,2013-05-02 20:47:00,
2013-05-02 13:52:00,90.5,37.1,30.05,North,0,0.0,0.0,16,0.00,,,0.00,WUHU216HW,2013-05-02 20:52:00,
2013-05-02 13:57:00,91.1,37.5,30.05,North,0,0.0,0.0,16,0.00,,,0.00,WUHU216HW,2013-05-02 20:57:00,
2013-05-02 14:02:00,91.4,37.8,30.05,North,0,0.0,0.0,16,0.00,,,0.00,WUHU216HW,2013-05-02 21:02:00,
2013-05-02 14:07:00,92.0,38.3,30.05,North,0,0.0,0.0,16,0.00,,,0.00,WUHU216HW,2013-05-02 21:07:00,
2013-05-02 14:12:00,92.3,38.5,30.05,North,0,0.0,0.0,16,0.00,,,0.00,WUHU216HW,2013-05-02 21:12:00,
2013-05-02 14:17:00,92.9,37.2,30.05,North,0,0.0,0.0,15,0.00,,,0.00,WUHU216HW,2013-05-02 21:17:00,
2013-05-02 14:22:00,92.7,37.1,30.05,North,0,0.0,0.0,15,0.00,,,0.00,WUHU216HW,2013-05-02 21:22:00,
2013-05-02 14:27:00,93.1,37.3,30.05,North,0,0.0,0.0,15,0.00,,,0.00,WUHU216HW,2013-05-02 21:27:00,
2013-05-02 14:32:00,93.2,37.4,30.04,North,0,0.0,0.0,15,0.00,,,0.00,WUHU216HW,2013-05-02 21:32:00,
2013-05-02 14:37:00,94.0,38.0,30.04,North,0,0.0,0.0,15,0.00,,,0.00,WUHU216HW,2013-05-02 21:37:00,
2013-05-02 14:42:00,94.3,38.4,30.04,North,0,0.0,0.0,15,0.00,,,0.00,WUHU216HW,2013-05-02 21:42:00,
2013-05-02 14:48:00,94.3,38.4,30.04,North,0,0.0,0.0,15,0.00,,,0.00,WUHU216HW,2013-05-02 21:48:00,
2013-05-02 14:53:00,94.5,38.4,30.04,North,0,0.0,0.0,15,0.00,,,0.00,WUHU216HW,2013-05-02 21:53:00,
2013-05-02 14:58:00,94.7,38.6,30.03,North,0,0.0,0.0,15,0.00,,,0.00,WUHU216HW,2013-05-02 21:58:00,
2013-05-02 15:03:00,95.0,35.4,30.03,North,0,0.0,0.0,13,0.00,,,0.00,WUHU216HW,2013-05-02 22:03:00,
2013-05-02 15:08:00,95.0,35.4,30.03,North,0,0.0,0.0,13,0.00,,,0.00,WUHU216HW,2013-05-02 22:08:00,
2013-05-02 15:13:00,94.9,35.2,30.03,North,0,0.0,0.0,13,0.00,,,0.00,WUHU216HW,2013-05-02 22:13:00,
2013-05-02 15:18:00,95.2,35.5,30.03,North,0,0.0,0.0,13,0.00,,,0.00,WUHU216HW,2013-05-02 22:18:00,
2013-05-02 15:23:00,95.4,35.7,30.03,North,0,0.0,0.0,13,0.00,,,0.00,WUHU216HW,2013-05-02 22:23:00,
2013-05-02 15:28:00,95.8,35.9,30.02,North,0,0.0,0.0,13,0.00,,,0.00,WUHU216HW,2013-05-02 22:28:00,
2013-05-02 15:33:00,96.1,38.0,30.02,North,0,0.0,0.0,14,0.00,,,0.00,WUHU216HW,2013-05-02 22:33:00,
2013-05-02 15:38:00,96.1,36.2,30.02,North,0,0.0,0.0,13,0.00,,,0.00,WUHU216HW,2013-05-02 22:38:00,
2013-05-02 15:43:00,96.3,36.3,30.02,North,0,0.0,0.0,13,0.00,,,0.00,WUHU216HW,2013-05-02 22:43:00,
2013-05-02 15:48:00,96.5,36.5,30.02,North,0,0.0,0.0,13,0.00,,,0.00,WUHU216HW,2013-05-02 22:48:00,
2013-05-02 15:53:00,96.5,36.5,30.02,North,0,0.0,0.0,13,0.00,,,0.00,WUHU216HW,2013-05-02 22:53:00,
2013-05-02 15:59:00,96.7,36.5,30.01,North,0,0.0,0.0,13,0.00,,,0.00,WUHU216HW,2013-05-02 22:59:00,
2013-05-02 16:04:00,96.8,36.7,30.01,North,0,0.0,0.0,13,0.00,,,0.00,WUHU216HW,2013-05-02 23:04:00,
2013-05-02 16:09:00,96.7,36.5,30.01,North,0,0.0,0.0,13,0.00,,,0.00,WUHU216HW,2013-05-02 23:09:00,
2013-05-02 16:14:00,96.5,34.7,30.01,North,0,0.0,0.0,12,0.00,,,0.00,WUHU216HW,2013-05-02 23:14:00,
2013-05-02 16:19:00,96.3,32.8,30.01,North,0,0.0,0.0,11,0.00,,,0.00,WUHU216HW,2013-05-02 23:19:00,
2013-05-02 16:24:00,95.9,32.5,30.01,North,0,0.0,0.0,11,0.00,,,0.00,WUHU216HW,2013-05-02 23:24:00,
2013-05-02 16:29:00,95.8,34.1,30.01,North,0,0.0,0.0,12,0.00,,,0.00,WUHU216HW,2013-05-02 23:29:00,
2013-05-02 16:34:00,95.8,34.1,30.01,North,0,0.0,0.0,12,0.00,,,0.00,WUHU216HW,2013-05-02 23:34:00,
2013-05-02 16:39:00,95.8,34.1,30.01,North,0,0.0,0.0,12,0.00,,,0.00,WUHU216HW,2013-05-02 23:39:00,
2013-05-02 16:44:00,95.6,34.0,30.00,North,0,0.0,0.0,12,0.00,,,0.00,WUHU216HW,2013-05-02 23:44:00,
2013-05-02 16:49:00,95.4,33.8,30.00,North,0,0.0,0.0,12,0.00,,,0.00,WUHU216HW,2013-05-02 23:49:00,
2013-05-02 16:54:00,95.2,33.8,30.00,North,0,0.0,0.0,12,0.00,,,0.00,WUHU216HW,2013-05-02 23:54:00,
2013-05-02 16:59:00,94.9,33.5,30.00,North,0,0.0,0.0,12,0.00,,,0.00,WUHU216HW,2013-05-02 23:59:00,
2013-05-02 17:05:00,94.9,35.2,30.00,North,0,0.0,0.0,13,0.00,,,0.00,WUHU216HW,2013-05-03 00:05:00,
2013-05-02 17:10:00,94.7,35.1,30.00,North,0,0.0,0.0,13,0.00,,,0.00,WUHU216HW,2013-05-03 00:10:00,
2013-05-02 17:15:00,94.3,34.7,30.00,North,0,0.0,0.0,13,0.00,,,0.00,WUHU216HW,2013-05-03 00:15:00,
2013-05-02 17:20:00,94.1,34.7,30.00,North,0,0.0,0.0,13,0.00,,,0.00,WUHU216HW,2013-05-03 00:20:00,
2013-05-02 17:25:00,94.1,34.7,30.00,North,0,0.0,0.0,13,0.00,,,0.00,WUHU216HW,2013-05-03 00:25:00,
2013-05-02 17:30:00,94.0,34.5,30.00,North,0,0.0,0.0,13,0.00,,,0.00,WUHU216HW,2013-05-03 00:30:00,
2013-05-02 17:35:00,93.8,34.4,29.99,North,0,0.0,0.0,13,0.00,,,0.00,WUHU216HW,2013-05-03 00:35:00,
2013-05-02 17:40:00,93.6,34.2,29.99,North,0,0.0,0.0,13,0.00,,,0.00,WUHU216HW,2013-05-03 00:40:00,
2013-05-02 17:45:00,93.2,33.9,29.99,North,0,0.0,0.0,13,0.00,,,0.00,WUHU216HW,2013-05-03 00:45:00,
2013-05-02 17:50:00,93.1,33.8,29.99,North,0,0.0,0.0,13,0.00,,,0.00,WUHU216HW,2013-05-03 00:50:00,
2013-05-02 17:55:00,92.9,31.9,29.99,North,0,0.0,0.0,12,0.00,,,0.00,WUHU216HW,2013-05-03 00:55:00,
2013-05-02 18:00:00,92.5,33.4,29.99,North,0,0.0,0.0,13,0.00,,,0.00,WUHU216HW,2013-05-03 01:00:00,
2013-05-02 18:05:00,92.5,31.6,29.99,North,0,0.0,0.0,12,0.00,,,0.00,WUHU216HW,2013-05-03 01:05:00,
2013-05-02 18:10:00,92.2,31.4,29.99,North,0,0.0,0.0,12,0.00,,,0.00,WUHU216HW,2013-05-03 01:10:00,
2013-05-02 18:15:00,91.8,31.2,29.99,North,0,0.0,0.0,12,0.00,,,0.00,WUHU216HW,2013-05-03 01:15:00,
2013-05-02 18:21:00,91.6,32.8,29.98,North,0,0.0,0.0,13,0.00,,,0.00,WUHU216HW,2013-05-03 01:21:00,
2013-05-02 18:26:00,91.4,32.6,29.98,North,0,0.0,0.0,13,0.00,,,0.00,WUHU216HW,2013-05-03 01:26:00,
2013-05-02 18:31:00,91.1,32.3,29.98,North,0,0.0,0.0,13,0.00,,,0.00,WUHU216HW,2013-05-03 01:31:00,
2013-05-02 18:36:00,90.9,33.9,29.98,North,0,0.0,0.0,14,0.00,,,0.00,WUHU216HW,2013-05-03 01:36:00,
2013-05-02 18:41:00,90.7,35.6,29.98,North,0,0.0,0.0,15,0.00,,,0.00,WUHU216HW,2013-05-03 01:41:00,
2013-05-02 18:46:00,90.4,35.2,29.98,North,0,0.0,0.0,15,0.00,,,0.00,WUHU216HW,2013-05-03 01:46:00,
2013-05-02 18:51:00,90.0,34.9,29.98,North,0,0.0,0.0,15,0.00,,,0.00,WUHU216HW,2013-05-03 01:51:00,
2013-05-02 18:56:00,89.6,34.7,29.98,North,0,0.0,0.0,15,0.00,,,0.00,WUHU216HW,2013-05-03 01:56:00,
2013-05-02 19:01:00,89.3,36.1,29.98,North,0,0.0,0.0,16,0.00,,,0.00,WUHU216HW,2013-05-03 02:01:00,
2013-05-02 19:06:00,89.1,36.0,29.98,North,0,0.0,0.0,16,0.00,,,0.00,WUHU216HW,2013-05-03 02:06:00,
2013-05-02 19:11:00,88.9,35.8,29.98,North,0,0.0,0.0,16,0.00,,,0.00,WUHU216HW,2013-05-03 02:11:00,
2013-05-02 19:16:00,88.6,35.6,29.98,North,0,0.0,0.0,16,0.00,,,0.00,WUHU216HW,2013-05-03 02:16:00,
2013-05-02 19:21:00,88.2,37.0,29.98,North,0,0.0,0.0,17,0.00,,,0.00,WUHU216HW,2013-05-03 02:21:00,
2013-05-02 19:26:00,87.8,36.7,29.98,North,0,0.0,0.0,17,0.00,,,0.00,WUHU216HW,2013-05-03 02:26:00,
2013-05-02 19:32:00,87.5,36.5,29.98,North,0,0.0,0.0,17,0.00,,,0.00,WUHU216HW,2013-05-03 02:32:00,
2013-05-02 19:37:00,86.9,37.7,29.98,North,0,0.0,0.0,18,0.00,,,0.00,WUHU216HW,2013-05-03 02:37:00,
2013-05-02 19:42:00,86.6,37.4,29.97,North,0,0.0,0.0,18,0.00,,,0.00,WUHU216HW,2013-05-03 02:42:00,
2013-05-02 19:47:00,86.0,36.9,29.98,North,0,0.0,0.0,18,0.00,,,0.00,WUHU216HW,2013-05-03 02:47:00,
2013-05-02 19:52:00,85.7,38.4,29.98,North,0,0.0,0.0,19,0.00,,,0.00,WUHU216HW,2013-05-03 02:52:00,
2013-05-02 19:57:00,85.0,37.7,29.98,North,0,0.0,0.0,19,0.00,,,0.00,WUHU216HW,2013-05-03 02:57:00,
2013-05-02 20:02:00,84.4,37.4,29.98,North,0,0.0,0.0,19,0.00,,,0.00,WUHU216HW,2013-05-03 03:02:00,
2013-05-02 20:07:00,83.9,36.9,29.98,North,0,0.0,0.0,19,0.00,,,0.00,WUHU216HW,2013-05-03 03:07:00,
2013-05-02 20:12:00,83.2,39.1,29.98,North,0,0.0,0.0,21,0.00,,,0.00,WUHU216HW,2013-05-03 03:12:00,
2013-05-02 20:17:00,82.8,38.8,29.98,North,0,0.0,0.0,21,0.00,,,0.00,WUHU216HW,2013-05-03 03:17:00,
2013-05-02 20:22:00,82.1,39.2,29.98,North,0,0.0,0.0,22,0.00,,,0.00,WUHU216HW,2013-05-03 03:22:00,
2013-05-02 20:27:00,81.5,39.9,29.98,North,0,0.0,0.0,23,0.00,,,0.00,WUHU216HW,2013-05-03 03:27:00,
2013-05-02 20:32:00,80.6,39.2,29.98,North,0,0.0,0.0,23,0.00,,,0.00,WUHU216HW,2013-05-03 03:32:00,
2013-05-02 20:37:00,80.3,38.8,29.98,North,0,0.0,0.0,23,0.00,,,0.00,WUHU216HW,2013-05-03 03:37:00,
2013-05-02 20:42:00,80.1,38.6,29.98,North,0,0.0,0.0,23,0.00,,,0.00,WUHU216HW,2013-05-03 03:42:00,
2013-05-02 20:48:00,79.9,38.5,29.98,North,0,0.0,0.0,23,0.00,,,0.00,WUHU216HW,2013-05-03 03:48:00,
2013-05-02 20:53:00,79.6,38.2,29.98,North,0,0.0,0.0,23,0.00,,,0.00,WUHU216HW,2013-05-03 03:53:00,
2013-05-02 20:58:00,79.2,38.9,29.99,North,0,0.0,0.0,24,0.00,,,0.00,WUHU216HW,2013-05-03 03:58:00,
2013-05-02 21:01:00,79.0,38.7,29.98,North,0,0.0,0.0,24,0.00,,,0.00,WUHU216HW,2013-05-03 04:01:00,
2013-05-02 21:03:00,79.0,37.7,29.98,North,0,0.0,0.0,23,0.00,,,0.00,WUHU216HW,2013-05-03 04:03:00,
2013-05-02 21:04:00,78.8,37.5,29.99,North,0,0.0,0.0,23,0.00,,,0.00,WUHU216HW,2013-05-03 04:04:00,
2013-05-02 21:09:00,78.5,37.3,29.99,North,0,0.0,0.0,23,0.00,,,0.00,WUHU216HW,2013-05-03 04:09:00,
2013-05-02 21:14:00,78.1,36.9,29.99,North,0,0.0,0.0,23,0.00,,,0.00,WUHU216HW,2013-05-03 04:14:00,
2013-05-02 21:19:00,77.8,36.6,29.99,North,0,0.0,0.0,23,0.00,,,0.00,WUHU216HW,2013-05-03 04:19:00,
2013-05-02 21:24:00,77.4,36.4,29.99,North,0,0.0,0.0,23,0.00,,,0.00,WUHU216HW,2013-05-03 04:24:00,
2013-05-02 21:29:00,77.0,37.1,29.99,North,0,0.0,0.0,24,0.00,,,0.00,WUHU216HW,2013-05-03 04:29:00,
2013-05-02 21:34:00,76.9,37.0,29.99,North,0,0.0,0.0,24,0.00,,,0.00,WUHU216HW,2013-05-03 04:34:00,
2013-05-02 21:39:00,76.5,36.6,29.99,North,0,0.0,0.0,24,0.00,,,0.00,WUHU216HW,2013-05-03 04:39:00,
2013-05-02 21:44:00,76.0,36.2,29.99,North,0,0.0,0.0,24,0.00,,,0.00,WUHU216HW,2013-05-03 04:44:00,
2013-05-02 21:49:00,75.6,36.9,29.99,North,0,0.0,0.0,25,0.00,,,0.00,WUHU216HW,2013-05-03 04:49:00,
2013-05-02 21:55:00,75.2,36.6,29.99,North,0,0.0,0.0,25,0.00,,,0.00,WUHU216HW,2013-05-03 04:55:00,
2013-05-02 22:00:00,74.9,36.4,29.99,North,0,0.0,0.0,25,0.00,,,0.00,WUHU216HW,2013-05-03 05:00:00,
2013-05-02 22:05:00,74.5,36.0,29.99,North,0,0.0,0.0,25,0.00,,,0.00,WUHU216HW,2013-05-03 05:05:00,
2013-05-02 22:10:00,74.2,35.7,29.98,North,0,0.0,0.0,25,0.00,,,0.00,WUHU216HW,2013-05-03 05:10:00,
2013-05-02 22:15:00,73.8,35.4,29.99,North,0,0.0,0.0,25,0.00,,,0.00,WUHU216HW,2013-05-03 05:15:00,
2013-05-02 22:20:00,73.4,35.1,29.99,North,0,0.0,0.0,25,0.00,,,0.00,WUHU216HW,2013-05-03 05:20:00,
2013-05-02 22:25:00,73.1,34.8,29.99,North,0,0.0,0.0,25,0.00,,,0.00,WUHU216HW,2013-05-03 05:25:00,
2013-05-02 22:30:00,72.9,34.7,29.99,North,0,0.0,0.0,25,0.00,,,0.00,WUHU216HW,2013-05-03 05:30:00,
2013-05-02 22:35:00,72.5,35.4,29.99,North,0,0.0,0.0,26,0.00,,,0.00,WUHU216HW,2013-05-03 05:35:00,
2013-05-02 22:40:00,72.4,35.2,29.98,North,0,0.0,0.0,26,0.00,,,0.00,WUHU216HW,2013-05-03 05:40:00,
2013-05-02 22:45:00,72.0,34.9,29.98,North,0,0.0,0.0,26,0.00,,,0.00,WUHU216HW,2013-05-03 05:45:00,
2013-05-02 22:50:00,71.6,35.7,29.98,North,0,0.0,0.0,27,0.00,,,0.00,WUHU216HW,2013-05-03 05:50:00,
2013-05-02 22:55:00,71.3,36.4,29.98,North,0,0.0,0.0,28,0.00,,,0.00,WUHU216HW,2013-05-03 05:55:00,
2013-05-02 23:01:00,70.9,36.0,29.99,North,0,0.0,0.0,28,0.00,,,0.00,WUHU216HW,2013-05-03 06:01:00,
2013-05-02 23:06:00,70.7,35.8,29.99,North,0,0.0,0.0,28,0.00,,,0.00,WUHU216HW,2013-05-03 06:06:00,
2013-05-02 23:11:00,70.4,35.6,29.99,North,0,0.0,0.0,28,0.00,,,0.00,WUHU216HW,2013-05-03 06:11:00,
2013-05-02 23:16:00,70.2,36.4,29.99,North,0,0.0,0.0,29,0.00,,,0.00,WUHU216HW,2013-05-03 06:16:00,
2013-05-02 23:21:00,69.8,36.1,29.98,North,0,0.0,0.0,29,0.00,,,0.00,WUHU216HW,2013-05-03 06:21:00,
2013-05-02 23:26:00,69.5,35.7,29.98,North,0,0.0,0.0,29,0.00,,,0.00,WUHU216HW,2013-05-03 06:26:00,
2013-05-02 23:31:00,69.1,36.5,29.98,North,0,0.0,0.0,30,0.00,,,0.00,WUHU216HW,2013-05-03 06:31:00,
2013-05-02 23:36:00,68.8,36.8,29.98,North,0,0.0,0.0,31,0.00,,,0.00,WUHU216HW,2013-05-03 06:36:00,
2013-05-02 23:41:00,68.6,37.5,29.98,North,0,0.0,0.0,32,0.00,,,0.00,WUHU216HW,2013-05-03 06:41:00,
2013-05-02 23:46:00,68.2,37.1,29.98,North,0,0.0,0.0,32,0.00,,,0.00,WUHU216HW,2013-05-03 06:46:00,
2013-05-02 23:51:00,67.9,36.8,29.98,North,0,0.0,0.0,32,0.00,,,0.00,WUHU216HW,2013-05-03 06:51:00,
2013-05-02 23:56:00,67.7,36.6,29.98,North,0,0.0,0.0,32,0.00,,,0.00,WUHU216HW,2013-05-03 06:56:00,